STARLINK-32456, 62041

Orbit data source: Space-Track

STARLINK-32456, 62041 is a payload satellite owned by SpaceX/Seattle (US) in LEO that was launched on Thu, 21 Nov 2024 UTC via an FALCON 9 launch vehicle from the Air Force Eastern Test Range (AFETR). Payload-class satellites include a variety of spacecraft equipped with specific instruments for various scientific and technological missions. These include communications satellites like Starlink; space stations such as the ISS; scientific satellites like the Hubble; Earth observation satellites from companies like Planet Labs, Umbra, and HawkEye 360; GPS; miniature CubeSats for education and research; and military/defense satellites.

Loading next visibility...
Identifier
62041, 2024-216K
Orbit
LEO
Last TLE update
19 hours ago
Origin
Manufacturer
SpaceX/Seattle
Mission
Operational Commercial Communications
Bus & Motor
STARLINK V2M, Unknown motor
Mass
730 kg wet, ~700 kg dry
Launch date (UTC)
2024-11-21 (6 months ago)
Launch vehicle
FALCON 9
Launch site
Air Force Eastern Test Range (AFETR)
Object type
Payload
Rocket body
Debris
Shape & HBR
Box + 2 Pan, 29 m
Radar Cross Section
36.964 m², Large (>1 m²)

Expand to show TLE details & history

TLE from 19 hours ago
0 STARLINK-32456
1 62041U 24216K   25128.44725253 -.00001775  00000-0 -35198-4 0  9990
2 62041  42.9986 186.1517 0001518 272.8237  87.2446 15.40730148 27124
Epoch: 2025-05-08T10:44Z
Definitive object data (Epoch: 2025-05-08T10:44:02.618Z)
Latitude
-0.00001°
Longitude
158.62317°
Altitude
443.677 km
Speed
7.648 km/s
True Right ascension
12h 24m 36s
True Declination
0° 00' 00"
Sunlit
Object was in full shadow at TLE epoch
Visualization TLE readout
Latitude
41.17874°
Longitude
-94.86605°
Altitude
447.696 km
Speed
7.649 km/s
Apparent Right ascension
22h 39m 08s
Apparent Declination
3° 27' 52"
Sunlit
Object is in daylight
Visualization observer readout
Local Sidereal Time
14:00:24
Azimuth
59.343° ENE
Elevation
-26.749°
Doppler factor
1
Orbital elements
Apogee altitude
446.946 km
Perigee altitude
444.874 km
Semi-major axis
6,824.047 km
Eccentricity
0.0001518
Inclination
42.9986°
RAAN
186.1517°
Arg. of periapsis
272.8237°
True anomaly
87.26198°
Mean anomaly
87.2446°
Eccentric anomaly
87.25329°
Mean motion
3.85017 °/min
BSTAR
-0.000035198
Orbital period
93.5 mins
Loading maneuver chart data...
Loading SW <> Apogee altitude chart data...
Loading historical data...
Loading historical data...
Loading historical data...
Loading historical data...
Loading historical data...
Loading historical data...
Loading historical data...

STARLINK-32456 Visibility forecast

Observer location: undefined°, undefined°

Span
Click to sort rows by Start time (UTC) header in descending order
Start Az.
Max El. time (UTC)
Max El. Az.
Max El.
End time (UTC)
End Az.
5 mins2025-05-09 07:10:39.799Z217.825° SW2025-05-09 07:12:39.799Z175.6° S31.83°2025-05-09 07:15:39.799Z86.276° E
4 mins2025-05-09 08:49:39.799Z278.704° WNW2025-05-09 08:50:39.799Z306.721° NW38.746°2025-05-09 08:53:39.799Z66.879° ENE
5 mins2025-05-09 10:27:39.799Z298.665° NW2025-05-09 10:29:39.799Z19.968° NNE38.332°2025-05-09 10:32:39.799Z84.089° E
5 mins2025-05-09 12:05:39.799Z277.529° WNW2025-05-09 12:07:39.799Z199.336° SSW41.077°2025-05-09 12:10:39.799Z124.561° SE
|